sat.trackr.live / text

‹ back to catalog

STARLINK-32305

NORAD 61523 · 2024-183Q

PAYLOAD ACTIVE UNKNOWN

§ Identity

Operator
Country
US
Launch date
2024-10-15
Launch site
AFETR
Launch vehicle
Mass (kg)
RCS (m²)

Purposes: comms

External: N2YO · Heavens-Above · Gunter

§ Orbital elements

Epoch: 2026-09-21T09:48:41.580576Z

Period
93.85 min
Inclination
53.1599°
Eccentricity
0.0001129
Mean motion
15.34390158 rev/d
Perigee alt
462.0 km
Apogee alt
463.5 km
Semi-major
6,840.9 km
B*
-1.2586e-5
RAAN
311.5277°
Arg perigee
81.0076°
Mean anomaly
279.1055°
Rev number
10,964

§ Raw data

STARLINK-323051 61523U 24183Q   26264.40881459 -.00000801  00000+0 -12586-4 0  99902 61523  53.1599 311.5277 0001129  81.0076 279.1055 15.34390158109640

JSON: /api/v1/satellites/61523 · /tle

For live sub-satellite position, see the globe view (requires WebGL).

§ Visibility from observer

Set your observer location to see the next 7 days of passes ≥ 10°. The values pass through the URL so the page stays shareable.

No JS? Fill the form by hand. The geolocation button needs JavaScript.